Jacksonville NAS, FL

9:48 AM EDT on May 28, 2017 (GMT -0400)
Jacksonville Naval Air Station

Weather History for KNIP - January, 2014

Change the Weather History Date:

Friday, January 24, 2014

  Actual Average Record
Temperature  
Mean Temperature 41 °F -  
Max Temperature 45 °F 63 °F 72 °F (2017)
Min Temperature 37 °F 45 °F 30 °F (2016)
Degree Days  
Heating Degree Days 24    
Moisture  
Dew Point 17 °F    
Average Humidity 38    
Maximum Humidity 51    
Minimum Humidity 23    
Precipitation  
Precipitation 0.00 in - - ()
Sea Level Pressure  
Sea Level Pressure 30.44 in    
Wind  
Wind Speed 11 mph (NNE)    
Max Wind Speed 21 mph    
Max Gust Speed 26 mph    
Visibility 10 miles    
Events      
Averages and records for this station are not official NWS values.
T = Trace of Precipitation, MM = Missing Value Source: NWS Daily Summary

Daily Weather History Graph

Daily Weather History Graph

Search for Another Location

Airport or City:

Trip Planner

Search our weather history database for the weather conditions in past years. The results will help you decide how hot, cold, wet, or windy it might be!

Date:

Astronomy

Jan. 24, 2014 Rise Set
Actual Time 7:21 AM EST 5:56 PM EST
Civil Twilight 6:55 AM EST 6:22 PM EST
Nautical Twilight 6:26 AM EST 6:51 PM EST
Astronomical Twilight 5:58 AM EST 7:19 PM EST
Moon 12:53 AM EST (1/24) 12:10 PM EST (1/24)
Length of Visible Light 11h 26m
Length of Day
10h 35m
Last Quarter, 45% of the Moon is Illuminated
Jan 24
Last Quarter
Jan 30
New
Feb 6
First Quarter
Feb 14
Full
Feb 22
Last Quarter

Hourly Weather History & Observations

Time (EST) Temp. Windchill Dew Point Humidity Pressure Visibility Wind Dir Wind Speed Gust Speed Precip Events Conditions
12:53 AM 43.0 °F 40.3 °F 23.0 °F 45% 30.40 in 8.0 mi WNW 4.6 mph - N/A   Mostly Cloudy
1:53 AM 42.1 °F 39.2 °F 24.1 °F 49% 30.40 in 8.0 mi NW 4.6 mph - N/A   Mostly Cloudy
2:53 AM 43.0 °F 38.2 °F 21.0 °F 42% 30.43 in 10.0 mi NW 8.1 mph - N/A   Mostly Cloudy
3:53 AM 43.0 °F 34.2 °F 19.9 °F 40% 30.44 in 10.0 mi North 20.7 mph - N/A   Mostly Cloudy
4:53 AM 41.0 °F 31.6 °F 18.0 °F 40% 30.47 in 10.0 mi NNW 20.7 mph - N/A   Mostly Cloudy
5:53 AM 39.9 °F 31.1 °F 17.1 °F 40% 30.49 in 10.0 mi NNW 17.3 mph - N/A   Overcast
6:53 AM 37.9 °F 28.5 °F 10.0 °F 32% 30.51 in 10.0 mi NNW 17.3 mph - N/A   Overcast
7:53 AM 37.9 °F 27.6 °F 10.9 °F 33% 30.51 in 10.0 mi North 20.7 mph 26.5 mph N/A   Mostly Cloudy
8:53 AM 39.0 °F 29.6 °F 10.9 °F 32% 30.52 in 10.0 mi North 18.4 mph - N/A   Scattered Clouds
9:53 AM 39.9 °F 31.4 °F 8.1 °F 27% 30.53 in 10.0 mi North 16.1 mph - N/A   Scattered Clouds
10:53 AM 42.1 °F 35.2 °F 6.1 °F 23% 30.53 in 10.0 mi North 12.7 mph - N/A   Partly Cloudy
11:53 AM 44.1 °F 37.4 °F 10.0 °F 25% 30.51 in 10.0 mi NE 13.8 mph - N/A   Mostly Cloudy
12:53 PM 45.0 °F 38.2 °F 10.0 °F 24% 30.47 in 10.0 mi NE 15.0 mph - N/A   Mostly Cloudy
1:53 PM 45.0 °F 38.9 °F 10.9 °F 25% 30.43 in 10.0 mi NNE 12.7 mph - N/A   Mostly Cloudy
2:53 PM 43.0 °F 36.0 °F 15.1 °F 32% 30.42 in 10.0 mi NE 13.8 mph - N/A   Scattered Clouds
3:53 PM 44.1 °F 39.0 °F 16.0 °F 32% 30.42 in 10.0 mi ENE 9.2 mph - N/A   Scattered Clouds
4:53 PM 42.1 °F 35.7 °F 19.0 °F 40% 30.41 in 10.0 mi ENE 11.5 mph - N/A   Mostly Cloudy
5:53 PM 41.0 °F 34.7 °F 21.0 °F 45% 30.42 in 10.0 mi ENE 10.4 mph - N/A   Mostly Cloudy
6:53 PM 41.0 °F 35.8 °F 21.9 °F 47% 30.41 in 10.0 mi ENE 8.1 mph - N/A   Mostly Cloudy
7:53 PM 41.0 °F 35.8 °F 24.1 °F 51% 30.40 in 10.0 mi ENE 8.1 mph - N/A   Mostly Cloudy
8:53 PM 42.1 °F 37.7 °F 24.1 °F 49% 30.39 in 10.0 mi East 6.9 mph - N/A   Overcast
9:53 PM 42.1 °F 39.2 °F 24.1 °F 49% 30.38 in 10.0 mi ENE 4.6 mph - N/A   Mostly Cloudy
10:53 PM 42.1 °F 37.7 °F 24.1 °F 49% 30.36 in 10.0 mi ENE 6.9 mph - N/A   Mostly Cloudy
11:53 PM 42.1 °F 40.2 °F 24.1 °F 49% 30.34 in 10.0 mi ENE 3.5 mph - N/A   Mostly Cloudy